User: anonymous   Login
Location: Skalnate Pleso
(49.1889°N, 20.2450°E)
Time: 17:04:45
(UTC+01:00)
Language:

COSMOS 2428 - Orbit

View from above orbital plane
View from above orbital plane
View from above satellite
View from above satellite

Ground track
Ground track

The orbit data is extracted from the following two-line orbital elements,

1 31792U 07029A   20017.29469549 -.00000222  00000-0 -94398-4 0  9993
2 31792  70.9251 232.4117 0010330 299.0463  60.9623 14.12398660647382
Epoch (UTC): 17 January 2020 07:04:21
Eccentricity: 0.0010330
inclination: 70.9251°
perigee height: 844 km
apogee height: 858 km
right ascension of ascending node: 232.4117°
argument of perigee: 299.0463°
revolutions per day: 14.12398660
mean anomaly at epoch: 60.9623°
orbit number at epoch: 64738

The dashed part of the orbit path shows where the satellite is in the earth's shadow,  

DLR